�������l�o���
Date,Time,MP-1(��Sv/h),MP-2(��Sv/h),MP-3(��Sv/h),MP-4(��Sv/h),MP-5(��Sv/h),MP-6(��Sv/h),MP-7(��Sv/h),MP-8(��Sv/h),����,����(m/s),���J
2020/09/17,00:00,0.666,0.952,0.611,1.172,0.842,0.387,0.676,0.635,-,CALM,��
2020/09/17,00:10,0.668,0.951,0.611,1.172,0.842,0.386,0.675,0.635,�k,0.9,��
2020/09/17,00:20,0.667,0.952,0.612,1.171,0.841,0.387,0.675,0.634,�k�k��,0.9,��
2020/09/17,00:30,0.669,0.951,0.612,1.175,0.843,0.387,0.675,0.635,�k��,0.6,��
2020/09/17,00:40,0.668,0.951,0.612,1.170,0.843,0.385,0.675,0.634,�k��,0.6,��
2020/09/17,00:50,0.669,0.951,0.611,1.173,0.842,0.387,0.674,0.634,�k��,0.8,��
2020/09/17,01:00,0.668,0.950,0.612,1.172,0.843,0.388,0.674,0.635,-,CALM,��
2020/09/17,01:10,0.668,0.951,0.612,1.170,0.843,0.386,0.675,0.636,��,0.8,��
2020/09/17,01:20,0.667,0.950,0.612,1.171,0.843,0.387,0.676,0.635,��,1.2,��
2020/09/17,01:30,0.669,0.953,0.613,1.170,0.841,0.386,0.674,0.635,���k��,1.7,��
2020/09/17,01:40,0.668,0.952,0.614,1.172,0.842,0.387,0.675,0.635,�k��,2.3,��
2020/09/17,01:50,0.666,0.952,0.612,1.172,0.842,0.385,0.675,0.635,�k��,1.5,��
2020/09/17,02:00,0.669,0.951,0.613,1.171,0.842,0.387,0.674,0.634,�k�k��,1.1,��
2020/09/17,02:10,0.669,0.949,0.613,1.173,0.842,0.387,0.676,0.633,�k�k��,0.9,��
2020/09/17,02:20,0.668,0.951,0.613,1.173,0.841,0.387,0.675,0.635,��,0.9,��
2020/09/17,02:30,0.669,0.951,0.611,1.172,0.841,0.386,0.675,0.634,�쓌,0.8,��
2020/09/17,02:40,0.668,0.952,0.612,1.172,0.842,0.387,0.675,0.634,��,0.6,��
2020/09/17,02:50,0.669,0.952,0.613,1.172,0.843,0.388,0.673,0.636,���쐼,0.8,��
2020/09/17,03:00,0.669,0.951,0.613,1.171,0.843,0.386,0.675,0.635,�쐼,0.8,��
2020/09/17,03:10,0.668,0.951,0.613,1.170,0.842,0.387,0.676,0.635,-,CALM,��
2020/09/17,03:20,0.669,0.951,0.614,1.171,0.842,0.387,0.674,0.636,-,CALM,��
2020/09/17,03:30,0.668,0.950,0.612,1.172,0.841,0.387,0.675,0.635,���k��,1.2,��
2020/09/17,03:40,0.668,0.951,0.611,1.173,0.843,0.387,0.675,0.634,�k��,1.5,��
2020/09/17,03:50,0.669,0.950,0.613,1.172,0.840,0.387,0.675,0.636,�k��,2.2,��
2020/09/17,04:00,0.667,0.951,0.613,1.173,0.842,0.385,0.674,0.635,�k�k��,1.7,��
2020/09/17,04:10,0.668,0.950,0.613,1.173,0.841,0.387,0.675,0.635,�k,1.7,��
2020/09/17,04:20,0.667,0.950,0.612,1.176,0.841,0.384,0.675,0.636,�k�k��,0.9,��
2020/09/17,04:30,0.669,0.953,0.612,1.171,0.840,0.387,0.674,0.634,�k�k��,2.0,��
2020/09/17,04:40,0.669,0.950,0.613,1.173,0.842,0.386,0.677,0.634,�k�k��,2.2,��
2020/09/17,04:50,0.669,0.951,0.613,1.174,0.842,0.386,0.674,0.635,�k�k��,2.0,��
2020/09/17,05:00,0.668,0.952,0.614,1.172,0.842,0.386,0.675,0.633,�k�k��,2.2,��
2020/09/17,05:10,0.669,0.952,0.614,1.172,0.842,0.387,0.676,0.634,�k�k��,2.9,��
2020/09/17,05:20,0.669,0.952,0.613,1.173,0.841,0.387,0.676,0.635,�k,3.1,��
2020/09/17,05:30,0.670,0.950,0.612,1.176,0.843,0.389,0.674,0.636,�k,2.6,��
2020/09/17,05:40,0.670,0.950,0.612,1.174,0.840,0.387,0.675,0.636,�k�k��,2.6,��
2020/09/17,05:50,0.667,0.950,0.611,1.174,0.841,0.388,0.675,0.636,�k,2.9,��
2020/09/17,06:00,0.668,0.952,0.613,1.171,0.841,0.386,0.675,0.636,�k�k��,1.5,��
2020/09/17,06:10,0.670,0.951,0.614,1.172,0.842,0.388,0.676,0.635,�k,2.0,��
2020/09/17,06:20,0.671,0.953,0.614,1.173,0.842,0.387,0.676,0.635,�k,1.9,��
2020/09/17,06:30,0.670,0.951,0.614,1.173,0.842,0.387,0.676,0.635,�k,1.7,��
2020/09/17,06:40,0.670,0.953,0.614,1.172,0.843,0.387,0.676,0.636,�k�k��,1.5,��
2020/09/17,06:50,0.671,0.954,0.614,1.173,0.842,0.385,0.676,0.637,���k��,1.2,��
2020/09/17,07:00,0.668,0.952,0.611,1.174,0.841,0.386,0.675,0.636,�k��,1.5,��
2020/09/17,07:10,0.666,0.952,0.613,1.173,0.842,0.387,0.675,0.636,�k��,2.0,��
2020/09/17,07:20,0.669,0.952,0.613,1.172,0.841,0.386,0.675,0.636,�k�k��,1.2,��
2020/09/17,07:30,0.667,0.951,0.612,1.171,0.842,0.384,0.675,0.634,�k�k��,1.2,��
2020/09/17,07:40,0.668,0.951,0.612,1.172,0.841,0.385,0.675,0.635,���k��,1.2,��
2020/09/17,07:50,0.668,0.950,0.612,1.173,0.840,0.386,0.674,0.634,���k��,1.9,��
2020/09/17,08:00,0.668,0.948,0.612,1.172,0.839,0.385,0.674,0.634,���k��,1.7,��
2020/09/17,08:10,0.667,0.949,0.611,1.173,0.841,0.384,0.674,0.634,�k��,0.8,��
2020/09/17,08:20,0.667,0.948,0.613,1.171,0.842,0.383,0.674,0.632,�k�k��,0.9,��
2020/09/17,08:30,0.666,0.945,0.610,1.173,0.840,0.385,0.675,0.633,�k��,0.6,��
2020/09/17,08:40,0.667,0.947,0.610,1.172,0.840,0.385,0.674,0.634,���쓌,1.2,��
2020/09/17,08:50,0.667,0.947,0.609,1.172,0.838,0.385,0.675,0.634,��,1.2,��
2020/09/17,09:00,0.667,0.946,0.608,1.173,0.839,0.385,0.674,0.632,�쓌,0.6,��
2020/09/17,09:10,0.670,0.943,0.608,1.172,0.841,0.384,0.675,0.634,��쓌,1.1,��
2020/09/17,09:20,0.669,0.945,0.611,1.173,0.838,0.384,0.676,0.633,�쓌,1.5,��
2020/09/17,09:30,0.669,0.947,0.610,1.173,0.842,0.386,0.675,0.633,��,1.2,��
2020/09/17,09:40,0.670,0.947,0.610,1.173,0.842,0.385,0.675,0.633,��,2.3,��
2020/09/17,09:50,0.669,0.949,0.611,1.172,0.839,0.385,0.675,0.634,���k��,2.3,��
2020/09/17,10:00,0.669,0.947,0.605,1.174,0.842,0.386,0.675,0.635,��,2.5,��
2020/09/17,10:10,0.669,0.946,0.608,1.172,0.842,0.385,0.676,0.633,��,2.6,��
2020/09/17,10:20,0.670,0.948,0.609,1.175,0.843,0.384,0.676,0.634,���k��,2.3,��
2020/09/17,10:30,0.670,0.948,0.611,1.175,0.844,0.386,0.676,0.636,��,3.0,��
2020/09/17,10:40,0.671,0.948,0.610,1.175,0.842,0.384,0.677,0.633,��,3.5,��
2020/09/17,10:50,0.670,0.950,0.610,1.176,0.843,0.387,0.675,0.633,��,2.8,��
2020/09/17,11:00,0.672,0.949,0.608,1.174,0.843,0.385,0.676,0.634,��,3.0,��
2020/09/17,11:10,0.669,0.951,0.612,1.178,0.844,0.386,0.677,0.634,��,2.6,��
2020/09/17,11:20,0.672,0.952,0.611,1.174,0.845,0.386,0.677,0.634,��,2.9,��
2020/09/17,11:30,0.671,0.953,0.611,1.174,0.844,0.386,0.677,0.634,��,2.6,��
2020/09/17,11:40,0.670,0.951,0.612,1.174,0.845,0.386,0.675,0.635,���쓌,3.0,��
2020/09/17,11:50,0.671,0.953,0.612,1.176,0.846,0.386,0.677,0.635,���쓌,3.3,��
2020/09/17,12:00,0.671,0.955,0.609,1.175,0.845,0.385,0.675,0.634,���쓌,3.7,��
2020/09/17,12:10,0.672,0.955,0.610,1.175,0.845,0.386,0.678,0.634,��,3.5,��
2020/09/17,12:20,0.671,0.956,0.610,1.175,0.847,0.386,0.676,0.636,���쓌,3.4,��
2020/09/17,12:30,0.670,0.957,0.608,1.176,0.846,0.387,0.676,0.634,���쓌,2.8,��
2020/09/17,12:40,0.670,0.955,0.610,1.177,0.847,0.387,0.676,0.636,���쓌,2.5,��
2020/09/17,12:50,0.671,0.956,0.611,1.175,0.846,0.386,0.676,0.634,���쓌,3.3,��
2020/09/17,13:00,0.672,0.955,0.611,1.176,0.847,0.385,0.677,0.633,��,2.8,��
2020/09/17,13:10,0.673,0.955,0.608,1.174,0.846,0.387,0.678,0.634,���쓌,3.3,��
2020/09/17,13:20,0.672,0.952,0.609,1.176,0.847,0.387,0.677,0.634,���쓌,3.0,��
2020/09/17,13:30,0.673,0.953,0.608,1.176,0.845,0.386,0.675,0.634,���쓌,2.3,��
2020/09/17,13:40,0.672,0.952,0.609,1.176,0.846,0.386,0.678,0.636,���쓌,2.5,��
2020/09/17,13:50,0.672,0.952,0.611,1.176,0.848,0.384,0.677,0.633,���쓌,2.9,��
2020/09/17,14:00,0.671,0.955,0.608,1.176,0.847,0.387,0.676,0.633,���쓌,3.7,��
2020/09/17,14:10,0.673,0.950,0.608,1.177,0.849,0.385,0.676,0.634,�쓌,3.7,��
2020/09/17,14:20,0.670,0.955,0.612,1.175,0.848,0.387,0.677,0.635,�쓌,3.6,��
2020/09/17,14:30,0.672,0.952,0.612,1.174,0.849,0.386,0.675,0.633,�쓌,3.4,��
2020/09/17,14:40,0.672,0.952,0.611,1.177,0.847,0.386,0.677,0.635,�쓌,2.3,��
2020/09/17,14:50,0.673,0.954,0.612,1.175,0.849,0.388,0.676,0.634,���쓌,3.1,��
2020/09/17,15:00,0.671,0.957,0.610,1.177,0.848,0.386,0.675,0.633,���쓌,2.8,��
2020/09/17,15:10,0.671,0.954,0.611,1.179,0.849,0.386,0.677,0.634,���쓌,3.3,��
2020/09/17,15:20,0.673,0.960,0.612,1.176,0.847,0.386,0.676,0.634,���쓌,2.3,��
2020/09/17,15:30,0.672,0.961,0.612,1.177,0.847,0.388,0.675,0.634,�쓌,2.3,��
2020/09/17,15:40,0.672,0.957,0.612,1.178,0.847,0.387,0.676,0.633,���쓌,2.5,��
2020/09/17,15:50,0.672,0.955,0.611,1.177,0.848,0.388,0.677,0.634,�쓌,2.0,��
2020/09/17,16:00,0.671,0.957,0.614,1.178,0.846,0.386,0.675,0.636,��,3.0,��
2020/09/17,16:10,0.672,0.959,0.614,1.176,0.849,0.388,0.674,0.635,�쓌,2.6,��
2020/09/17,16:20,0.673,0.962,0.612,1.179,0.847,0.386,0.676,0.634,���쓌,2.6,��
2020/09/17,16:30,0.677,0.963,0.613,1.177,0.847,0.389,0.675,0.633,���쓌,2.8,��
2020/09/17,16:40,0.675,0.961,0.613,1.176,0.851,0.388,0.676,0.633,��,1.5,��
2020/09/17,16:50,0.673,0.959,0.613,1.178,0.849,0.388,0.677,0.636,���쓌,2.3,��
2020/09/17,17:00,0.673,0.962,0.612,1.178,0.848,0.388,0.676,0.636,�쓌,2.2,��
2020/09/17,17:10,0.674,0.962,0.613,1.179,0.850,0.387,0.679,0.636,�쓌,2.0,��
2020/09/17,17:20,0.674,0.962,0.613,1.179,0.849,0.388,0.679,0.636,��,2.0,��
2020/09/17,17:30,0.672,0.963,0.614,1.176,0.848,0.389,0.678,0.636,�쓌,1.9,��
2020/09/17,17:40,0.673,0.960,0.614,1.178,0.849,0.387,0.678,0.638,���쓌,1.4,��
2020/09/17,17:50,0.671,0.963,0.613,1.178,0.850,0.389,0.677,0.636,���쓌,0.9,��
2020/09/17,18:00,0.674,0.961,0.613,1.179,0.849,0.388,0.677,0.636,���k��,1.2,��
2020/09/17,18:10,0.672,0.962,0.614,1.178,0.849,0.386,0.679,0.635,���k��,1.4,��
2020/09/17,18:20,0.672,0.963,0.613,1.177,0.848,0.388,0.678,0.636,���k��,1.1,��
2020/09/17,18:30,0.673,0.961,0.615,1.176,0.851,0.388,0.679,0.637,�k��,1.2,��
2020/09/17,18:40,0.674,0.963,0.613,1.179,0.850,0.388,0.678,0.637,���쓌,1.2,��
2020/09/17,18:50,0.673,0.961,0.614,1.180,0.850,0.388,0.677,0.637,��,0.9,��
2020/09/17,19:00,0.673,0.963,0.615,1.177,0.849,0.387,0.678,0.636,�쓌,1.2,��
2020/09/17,19:10,0.674,0.961,0.612,1.177,0.851,0.387,0.678,0.635,�쓌,1.5,��
2020/09/17,19:20,0.673,0.962,0.613,1.179,0.851,0.387,0.677,0.636,��,0.8,��
2020/09/17,19:30,0.674,0.959,0.616,1.179,0.849,0.387,0.678,0.637,�쓌,1.4,��
2020/09/17,19:40,0.673,0.962,0.614,1.179,0.851,0.387,0.677,0.636,�쓌,2.0,��
2020/09/17,19:50,0.674,0.963,0.612,1.180,0.852,0.387,0.678,0.636,��쓌,2.3,��
2020/09/17,20:00,0.672,0.961,0.616,1.178,0.850,0.389,0.678,0.636,��쓌,3.0,��
2020/09/17,20:10,0.673,0.961,0.612,1.179,0.850,0.387,0.678,0.637,��쓌,2.3,��
2020/09/17,20:20,0.675,0.963,0.613,1.178,0.850,0.388,0.676,0.637,��쓌,2.5,��
2020/09/17,20:30,0.672,0.964,0.612,1.177,0.850,0.386,0.677,0.636,��,2.3,��
2020/09/17,20:40,0.673,0.960,0.613,1.179,0.849,0.388,0.677,0.638,��,1.9,��
2020/09/17,20:50,0.672,0.962,0.614,1.179,0.850,0.387,0.680,0.637,��,2.0,��
2020/09/17,21:00,0.674,0.961,0.613,1.179,0.850,0.387,0.677,0.636,��,2.0,��
2020/09/17,21:10,0.673,0.964,0.613,1.180,0.848,0.388,0.678,0.636,��,2.0,��
2020/09/17,21:20,0.672,0.959,0.613,1.179,0.849,0.388,0.677,0.636,��,3.1,��
2020/09/17,21:30,0.672,0.960,0.614,1.177,0.847,0.387,0.678,0.635,��,2.5,��
2020/09/17,21:40,0.672,0.961,0.614,1.178,0.849,0.387,0.679,0.635,��,2.5,��
2020/09/17,21:50,0.671,0.962,0.616,1.179,0.849,0.387,0.679,0.635,��쐼,1.9,��
2020/09/17,22:00,0.672,0.961,0.614,1.179,0.850,0.388,0.677,0.637,��,2.2,��
2020/09/17,22:10,0.673,0.962,0.614,1.180,0.848,0.387,0.679,0.638,��쓌,2.8,��
2020/09/17,22:20,0.673,0.961,0.615,1.181,0.851,0.388,0.677,0.635,��쓌,3.1,��
2020/09/17,22:30,0.674,0.963,0.614,1.179,0.850,0.389,0.679,0.636,��쓌,3.0,��
2020/09/17,22:40,0.672,0.960,0.613,1.180,0.849,0.388,0.678,0.637,��,3.5,��
2020/09/17,22:50,0.675,0.961,0.614,1.181,0.852,0.387,0.679,0.636,��,3.5,��
2020/09/17,23:00,0.672,0.962,0.613,1.181,0.850,0.388,0.678,0.636,��,4.2,��
2020/09/17,23:10,0.673,0.960,0.613,1.179,0.849,0.390,0.679,0.638,��,4.3,��
2020/09/17,23:20,0.674,0.961,0.616,1.180,0.851,0.389,0.679,0.636,��,4.5,��
2020/09/17,23:30,0.674,0.961,0.615,1.181,0.853,0.389,0.679,0.636,��,4.6,��
2020/09/17,23:40,0.673,0.961,0.615,1.180,0.851,0.388,0.680,0.637,��,4.1,��
2020/09/17,23:50,0.674,0.961,0.615,1.181,0.852,0.389,0.678,0.638,��,4.1,��
